Waarnemingen

Advertentie
Mijn weer
Beauvechain, België (6458): temperatuur & dauwpunt: 12.08.2019 03:00:00 - 18.08.2019 03:00:00 (CEST)Beauvechain, België (6458): windsnelheid & windstoten: 12.08.2019 03:00:00 - 18.08.2019 03:00:00 (CEST)Beauvechain, België (6458): windrichting: 12.08.2019 03:00:00 - 18.08.2019 03:00:00 (CEST)Beauvechain, België (6458): luchtdruk: 12.08.2019 03:00:00 - 18.08.2019 03:00:00 (CEST)Beauvechain, België (6458): zicht: 12.08.2019 03:00:00 - 18.08.2019 03:00:00 (CEST)
Datum & Tijd tt [°C] td [°C] ff [km/u] ff [kn] fx [km/u] fx [kn] dd ppp [hPa] vv [km]
18.08.2019 03:00:00 - - - - - - - - -
18.08.2019 02:00:00 - - - - - - - - -
18.08.2019 01:00:00 - - - - - - - - -
18.08.2019 00:00:00 - - - - - - - - -
17.08.2019 23:00:00 - - - - - - - - -
17.08.2019 22:00:00 - - - - - - - - -
17.08.2019 21:00:00 - - - - - - - - -
17.08.2019 20:00:00 - - - - - - - - -
17.08.2019 19:00:00 - - - - - - - - -
17.08.2019 18:00:00 - - - - - - - - -
17.08.2019 17:00:00 - - - - - - - - -
17.08.2019 16:00:00 - - - - - - - - -
17.08.2019 15:00:00 - - - - - - - - -
17.08.2019 14:00:00 - - - - - - - - -
17.08.2019 13:00:00 - - - - - - - - -
17.08.2019 12:00:00 - - - - - - - - -
17.08.2019 11:00:00 - - - - - - - - -
17.08.2019 10:00:00 - - - - - - - - -
17.08.2019 09:00:00 - - - - - - - - -
17.08.2019 08:00:00 - - - - - - - - -
17.08.2019 07:00:00 - - - - - - - - -
17.08.2019 06:00:00 - - - - - - - - -
17.08.2019 05:00:00 - - - - - - - - -
17.08.2019 04:00:00 - - - - - - - - -
17.08.2019 03:00:00 - - - - - - - - -
17.08.2019 02:00:00 - - - - - - - - -
17.08.2019 01:00:00 - - - - - - - - -
17.08.2019 00:00:00 - - - - - - - - -
16.08.2019 23:00:00 - - - - - - - - -
16.08.2019 22:00:00 - - - - - - - - -
16.08.2019 21:00:00 - - - - - - - - -
16.08.2019 20:00:00 - - - - - - - - -
16.08.2019 19:00:00 - - - - - - - - -
16.08.2019 18:00:00 - - - - - - - - -
16.08.2019 17:00:00 - - - - - - - - -
16.08.2019 16:00:00 - - - - - - - - -
16.08.2019 15:00:00 - - - - - - - - -
16.08.2019 14:00:00 - - - - - - - - -
16.08.2019 13:00:00 - - - - - - - - -
16.08.2019 12:00:00 - - - - - - - - -
16.08.2019 11:00:00 - - - - - - - - -
16.08.2019 10:00:00 - - - - - - - - -
16.08.2019 09:00:00 - - - - - - - - -
16.08.2019 08:00:00 - - - - - - - - -
16.08.2019 07:00:00 - - - - - - - - -
16.08.2019 06:00:00 - - - - - - - - -
16.08.2019 05:00:00 - - - - - - - - -
16.08.2019 04:00:00 - - - - - - - - -
16.08.2019 03:00:00 - - - - - - - - -
16.08.2019 02:00:00 - - - - - - - - -
16.08.2019 01:00:00 - - - - - - - - -
16.08.2019 00:00:00 - - - - - - - - -
15.08.2019 23:00:00 - - - - - - - - -
15.08.2019 22:00:00 - - - - - - - - -
15.08.2019 21:00:00 - - - - - - - - -
15.08.2019 20:00:00 - - - - - - - - -
15.08.2019 19:00:00 - - - - - - - - -
15.08.2019 18:00:00 - - - - - - - - -
15.08.2019 17:00:00 - - - - - - - - -
15.08.2019 16:00:00 - - - - - - - - -
15.08.2019 15:00:00 - - - - - - - - -
15.08.2019 14:00:00 - - - - - - - - -
15.08.2019 13:00:00 - - - - - - - - -
15.08.2019 12:00:00 - - - - - - - - -
15.08.2019 11:00:00 - - - - - - - - -
15.08.2019 10:00:00 - - - - - - - - -
15.08.2019 09:00:00 - - - - - - - - -
15.08.2019 08:00:00 - - - - - - - - -
15.08.2019 07:00:00 - - - - - - - - -
15.08.2019 06:00:00 - - - - - - - - -
15.08.2019 05:00:00 - - - - - - - - -
15.08.2019 04:00:00 - - - - - - - - -
15.08.2019 03:00:00 - - - - - - - - -
15.08.2019 02:00:00 - - - - - - - - -
15.08.2019 01:00:00 - - - - - - - - -
15.08.2019 00:00:00 - - - - - - - - -
14.08.2019 23:00:00 - - - - - - - - -
14.08.2019 22:00:00 - - - - - - - - -
14.08.2019 21:00:00 - - - - - - - - -
14.08.2019 20:00:00 - - - - - - - - -
14.08.2019 19:00:00 - - - - - - - - -
14.08.2019 18:00:00 - - - - - - - - -
14.08.2019 17:00:00 - - - - - - - - -
14.08.2019 16:00:00 21,7 10,3 22 12 32 18 ZZW 1016,8 20
14.08.2019 15:00:00 20,7 9,8 18 10 32 18 ZW 1017,3 20
14.08.2019 14:00:00 21,0 9,1 18 10 - - ZZW 1017,6 20
14.08.2019 13:00:00 19,5 10,9 18 10 32 18 ZZW 1018,5 20
14.08.2019 12:00:00 16,8 11,4 18 10 29 16 ZZW 1019,0 20
14.08.2019 11:00:00 15,6 10,6 18 10 - - WZW 1019,3 20
14.08.2019 10:00:00 15,6 11,6 14 8 22 12 ZZW 1019,4 15
14.08.2019 09:00:00 14,4 11,8 11 6 11 6 ZZW 1019,5 15
14.08.2019 08:00:00 12,1 10,7 11 6 - - ZZW 1019,6 15
14.08.2019 07:00:00 - - - - - - - - -
14.08.2019 06:00:00 - - - - - - - - -
14.08.2019 05:00:00 - - - - - - - - -
14.08.2019 04:00:00 - - - - - - - - -
14.08.2019 03:00:00 - - - - - - - - -
14.08.2019 02:00:00 - - - - - - - - -
14.08.2019 01:00:00 - - - - - - - - -
14.08.2019 00:00:00 - - - - - - - - -
13.08.2019 23:00:00 - - - - - - - - -
13.08.2019 22:00:00 - - - - - - - - -
13.08.2019 21:00:00 - - - - - - - - -
13.08.2019 20:00:00 - - - - - - - - -
13.08.2019 19:00:00 - - - - - - - - -
13.08.2019 18:00:00 - - - - - - - - -
13.08.2019 17:00:00 - - - - - - - - -
13.08.2019 16:00:00 16,5 9,5 40 21 - - WZW 1019,0 20
13.08.2019 15:00:00 15,2 10,0 29 16 29 16 WZW 1019,6 12
13.08.2019 14:00:00 17,0 7,8 29 16 - - WZW 1019,2 20
13.08.2019 13:00:00 19,0 7,8 29 16 25 14 ZW 1019,1 20
13.08.2019 12:00:00 17,6 8,9 29 16 25 14 ZW 1019,2 20
13.08.2019 11:00:00 17,4 10,6 25 14 - - ZW 1019,6 20
13.08.2019 10:00:00 - 10,0 144 78 22 12 N - 0,6
13.08.2019 09:00:00 14,0 10,0 22 12 25 14 ZW 1019,0 10
13.08.2019 08:00:00 11,8 10,6 14 8 - - ZW 1018,6 12
13.08.2019 07:00:00 10,8 9,9 11 6 18 10 ZW 1018,2 10
13.08.2019 06:00:00 11,3 10,2 11 6 22 12 WZW 1018,1 11
13.08.2019 05:00:00 11,6 10,7 15 8 - - ZW 1017,7 7
13.08.2019 04:00:00 12,0 11,2 14 8 22 12 ZW 1017,5 9
13.08.2019 03:00:00 12,3 11,3 11 6 14 8 ZW 1017,3 14
13.08.2019 02:00:00 12,5 11,4 11 6 - - ZW 1017,2 19
13.08.2019 01:00:00 12,3 11,3 11 6 14 8 ZW 1017,1 19
13.08.2019 00:00:00 13,0 11,3 7 4 11 6 Z 1016,6 20
12.08.2019 23:00:00 13,0 10,6 7 4 - - W 1016,8 7
12.08.2019 22:00:00 14,1 12,6 11 6 14 8 ZZW 1016,3 20
12.08.2019 21:00:00 15,3 13,0 7 4 14 8 Z 1015,3 20
12.08.2019 20:00:00 16,2 12,6 11 6 - - Z 1015,0 20
12.08.2019 19:00:00 15,9 12,7 11 6 14 8 ZZW 1014,8 20
12.08.2019 18:00:00 15,8 13,6 5 3 11 6 Z 1014,6 10
12.08.2019 17:00:00 14,4 11,8 7 4 - - ZO 1015,1 20
12.08.2019 16:00:00 17,3 9,7 29 16 47 25 W 1015,2 12
12.08.2019 15:00:00 20,6 9,3 14 8 25 14 WZW 1014,0 20
12.08.2019 14:00:00 21,9 10,5 14 8 - - ZW 1014,1 20
12.08.2019 13:00:00 21,5 11,1 18 10 36 19 WZW 1015,0 20
12.08.2019 12:00:00 20,0 10,6 18 10 36 19 ZW 1015,7 20
12.08.2019 11:00:00 19,0 12,0 18 10 - - WZW 1015,7 20
12.08.2019 10:00:00 17,2 12,3 14 8 25 14 ZW 1016,1 20
12.08.2019 09:00:00 15,7 12,1 14 8 18 10 ZZW 1016,2 20
12.08.2019 08:00:00 13,9 11,4 14 8 - - ZZW 1016,1 20
12.08.2019 07:00:00 13,1 11,0 11 6 18 10 ZZW 1016,1 20
12.08.2019 06:00:00 13,3 10,9 11 6 14 8 ZW 1015,7 20
12.08.2019 05:00:00 13,1 10,7 14 8 - - ZZW 1015,6 20
12.08.2019 04:00:00 13,4 10,7 14 8 18 10 ZZW 1015,6 20
12.08.2019 03:00:00 14,1 10,7 14 8 18 10 ZZW 1015,6 20

tt = temperatuur
td = dauwpunt
ff = windsnelheid
fx = windstoten
dd = windrichting
ppp = luchtdruk
vv = zicht

Weerstations in de omgeving